www.pogodaiklimat.ru

ПОГОДА в Medicine Hat Arpt

  • Прогноз погоды в Medicine Hat Arpt
  • Монитор погоды в Medicine Hat Arpt
  • Климат города

АРХИВ ПОГОДЫ в Medicine Hat Arpt

Время (UTC), дата Ветер
(напр.,м/с)
 
Видим.   Явления Облачность Т
(С)
Тd
(С)
f
(%)
Тe
(С)
Тes
(С)
Комфортность P
(гПа)
Po
(гПа)
Тmin
(С)
Tmax
(С)
R
(мм)
S
(см)
18 9.01 Ю 5 н/о {осадки} н/о -37.5 -41.4 67 -52 -52 опасность
обморожения
1021.8 1011.5 -38.1 -33.5 0.4
21 9.01 Ю 5 н/о {осадки} н/о -35.8 -39.5 69 -50 -50 опасность
обморожения
1019.1 1008.9 0.5
00 10.01 Ю 5 н/о {осадки} н/о -37.0 -40.9 67 -51 -51 опасность
обморожения
1017.8 1007.5 -38.1 -34.4 2
03 10.01 Ю 3 н/о {осадки} н/о -35.6 -39.4 68 -47 -47 опасность
обморожения
1014.8 1004.6 0.2
06 10.01 Ю 4 н/о {осадки} н/о -37.3 -41.1 67 -50 -50 опасность
обморожения
1012.7 1002.5 -38.2 -33.5 0.2
09 10.01 Ю 3 н/о н/о -35.5 -39.2 69 -45 -45 опасность
обморожения
1012.9 1002.7 0.5
12 10.01 Ю 2 н/о н/о -35.5 -39.2 69 -44 -44 опасность
обморожения
1013.1 1002.9 -38.2 -33.5 0.5 63
15 10.01 Ю 3 н/о н/о -34.7 -38.4 69 -44 -44 опасность
обморожения
1013.1 1002.9
18 10.01 ЮЗ 1 н/о н/о -34.2 -37.7 70 -36 -36 опасность
обморожения
1014.2 1004.0 -38.2 -33.3
21 10.01 СЗ 1 н/о {осадки} н/о -36.4 -40.2 68 -38 -38 опасность
обморожения
1015.2 1005.0 0.7
00 11.01 С 2 н/о {осадки} н/о -35.2 -38.8 69 -42 -42 опасность
обморожения
1015.3 1005.1 -37.4 -33.3 0.9
03 11.01 С 1 н/о н/о -35.1 -38.7 69 -40 -40 опасность
обморожения
1016.4 1006.2
06 11.01 штиль 0 н/о {осадки} н/о -35.6 -39.2 69 -36 -36 опасность
обморожения
1016.9 1006.7 -37.4 -33.3 0.9
09 11.01 ЮЗ 1 н/о н/о -37.7 -41.5 67 -43 -43 опасность
обморожения
1018.4 1008.1 0.5
12 11.01 Ю 4 н/о {осадки} н/о -39.0 -43.1 65 -52 -52 опасность
обморожения
1019.9 1009.6 -39.3 -33.3 1
15 11.01 Ю 6 н/о н/о -38.7 -42.8 65 -55 -55 опасность
обморожения
1021.8 1011.5
18 11.01 Ю 5 н/о н/о -38.8 -42.9 65 -54 -54 опасность
обморожения
1023.7 1013.4 -39.3 -35.0
21 11.01 Ю 6 н/о н/о -38.2 -42.3 65 -54 -54 опасность
обморожения
1025.2 1014.8 0.3
00 12.01 Ю 5 н/о {осадки} н/о -37.8 -41.8 66 -52 -52 опасность
обморожения
1026.8 1016.4 -39.5 -37.6 0.9
03 12.01 Ю 5 н/о н/о -39.0 -43.2 64 -53 -53 опасность
обморожения
1029.4 1018.9
06 12.01 Ю 5 н/о н/о -38.9 -43.1 64 -53 -53 опасность
обморожения
1031.3 1020.8 -39.7 -35.0
09 12.01 Ю 4 н/о н/о -37.4 -41.3 67 -51 -51 опасность
обморожения
1031.8 1021.4 0.3
12 12.01 Ю 4 н/о {осадки} н/о -35.9 -39.8 67 -49 -49 опасность
обморожения
1030.6 1020.2 -39.7 -35.0 0.6 63
15 12.01 Ю 3 н/о н/о -36.2 -40.1 67 -47 -47 опасность
обморожения
1028.0 1017.6 0.3
18 12.01 Ю 2 н/о {осадки} н/о -33.9 -37.5 70 -42 -42 опасность
обморожения
1025.6 1015.3 -39.7 -33.7 0.6
21 12.01 штиль 0 н/о н/о -32.8 -36.2 71 -33 -33 опасность
обморожения
1023.1 1012.8 0.3
00 13.01 С 2 н/о {осадки} н/о -34.9 -38.5 70 -42 -42 опасность
обморожения
1021.4 1011.1 -39.0 -32.1 0.6
03 13.01 С 3 н/о н/о -33.5 -37.0 71 -44 -44 опасность
обморожения
1019.1 1008.9 0.4
06 13.01 С 5 н/о н/о -35.2 -38.9 69 -49 -49 опасность
обморожения
1017.5 1007.3 -39.0 -32.1 0.7
09 13.01 С 6 н/о н/о -35.6 -39.3 69 -50 -50 опасность
обморожения
1018.1 1007.9
12 13.01 З 2 н/о н/о -37.2 -41.0 68 -46 -46 опасность
обморожения
1014.0 1003.8 -37.4 -32.1 63
15 13.01 З 3 н/о н/о -37.2 -41.0 68 -48 -48 опасность
обморожения
1012.0 1001.8 0.2
18 13.01 З 4 н/о н/о -38.1 -42.0 67 -51 -51 опасность
обморожения
1011.2 1001.0 -38.3 -34.9 0.2
21 13.01 З 3 н/о н/о -37.8 -41.8 66 -49 -49 опасность
обморожения
1011.3 1001.1 0.2
00 14.01 ЮЗ 2 н/о {осадки} н/о -36.7 -40.5 68 -44 -44 опасность
обморожения
1012.5 1002.3 -38.3 -35.1 0.2
03 14.01 Ю 5 н/о н/о -37.7 -41.6 67 -52 -52 опасность
обморожения
1012.4 1002.2
06 14.01 Ю 7 н/о н/о -38.7 -42.7 66 -56 -56 опасность
обморожения
1012.7 1002.4 -38.8 -34.9 0.4 7
09 14.01 Ю 7 н/о н/о -39.3 -43.4 65 -57 -57 опасность
обморожения
1013.1 1002.8 0.4
12 14.01 Ю 7 н/о {осадки} н/о -38.3 -42.4 65 -55 -55 опасность
обморожения
1012.7 1002.5 -39.5 -34.9 0.6 63
15 14.01 Ю 6 н/о н/о -38.4 -42.5 65 -54 -54 опасность
обморожения
1010.6 1000.4
18 14.01 Ю 5 н/о н/о -39.0 -43.2 64 -53 -53 опасность
обморожения
1007.8 997.6 -39.5 -36.8
21 14.01 Ю 5 н/о н/о -39.3 -43.5 64 -54 -54 опасность
обморожения
1006.6 996.4
00 15.01 Ю 5 н/о н/о -39.9 -44.2 63 -54 -54 опасность
обморожения
1006.1 995.9 -40.1 -38.1
03 15.01 Ю 5 н/о н/о -39.3 -43.4 65 -54 -54 опасность
обморожения
1006.2 996.0
06 15.01 ЮЗ 4 н/о {осадки} н/о -39.2 -43.4 64 -53 -53 опасность
обморожения
1004.8 994.6 -40.3 -36.8 0.3 8
09 15.01 Ю 5 н/о н/о -40.1 -44.3 64 -55 -55 опасность
обморожения
1007.2 996.9
12 15.01 Ю 5 н/о н/о -40.8 -45.1 63 -55 -55 опасность
обморожения
1007.3 997.0 -40.8 -36.8 63
15 15.01 Ю 4 н/о н/о -41.8 -46.2 62 -55 -55 опасность
обморожения
1010.9 1000.6
18 15.01 Ю 3 н/о {осадки} н/о -41.3 -45.8 61 -52 -52 опасность
обморожения
1013.9 1003.6 -42.2 -38.9 0.2
21 15.01 Ю 2 н/о н/о -41.0 -45.3 63 -49 -49 опасность
обморожения
1016.6 1006.2
00 16.01 З 2 н/о {осадки} н/о -39.6 -44.0 63 -47 -47 опасность
обморожения
1015.0 1004.6 -42.2 -38.7 0.8
03 16.01 СЗ 2 н/о н/о -39.0 -43.2 64 -48 -48 опасность
обморожения
1013.8 1003.5 0.6
06 16.01 Ю 7 н/о {осадки} н/о -41.3 -45.7 62 -59 -59 опасность
обморожения
1001.1 990.9 -42.2 -36.7 3
09 16.01 Ю 7 н/о н/о -42.1 -46.6 61 -60 -60 опасность
обморожения
1001.8 991.5 0.3
12 16.01 Ю 7 н/о н/о -41.9 -46.5 61 -60 -60 опасность
обморожения
1002.6 992.4 -42.4 -36.7 0.3 67
15 16.01 Ю 7 н/о н/о -41.9 -46.5 61 -60 -60 опасность
обморожения
1002.9 992.7

 

Местоположение метеостанции Medicine Hat Arpt (Канада): широта 50.02 долгота -110.70 высота над уровнем моря 716 м.

В архиве по умолчанию представлена погода в Medicine Hat Arpt за последнюю неделю. Архивные данные за месяц целиком и за предыдущие месяцы, начиная с января 2011 года, Вы можете получить, выбрав интересующий диапазон дат из раскрывающегося списка и нажав кнопку "Ввод!".

Внимание! Время в таблицах - всемирное. Для получения местного времени необходимо прибавить поправку, которая в Medicine Hat Arpt равна -7 ч.

Ветер - указаны скорость ветра в м/с - средняя за 10 мин, порывы в срок и между сроками (в фигурных скобках) и направление, откуда дует ветер: С - северный, СВ - северо-восточный, В - восточный, ЮВ - юго-восточный, Ю - южный, ЮЗ - юго-западный, З - западный, СЗ - северо-западный.
Видимость - горизонтальная дальность видимости в метрах или километрах. При видимости от 1 до 10 км при отсутствии осадков обычно наблюдается дымка, при ухудшении видимости до 1 км и менее - туман. В сухую погоду видимость может ухудшаться дымом, пылью или мглою.
Явления - указаны атмосферные явления, наблюдавшиеся в срок или в последний час перед сроком; фигурными скобками обозначены явления, наблюдавшиеся между сроками (за 1-3 часа до срока); квадратными скобками обозначены град или гололедные отложения с указанием их диаметра в мм.
Облачность - указаны через наклонную черту общая и нижняя облачность в баллах и высота нижней границы облаков в метрах; квадратными скобками обозначены формы облаков: Ci - перистые, Cs - перисто-слоистые, Cc - перисто-кучевые, Ac - высококучевые, As - высокослоистые, Sc - слоисто-кучевые, Ns - слоисто-дождевые, Cu - кучевые, Cb - кучево-дождевые. Подробнее классификацию облаков см. в Атласе облаков (PDF).
T - Температура воздуха - температура, измеренная на высоте 2 м над землей.
Td - Температура точки росы - температура, при понижении до которой содержащийся в воздухе водяной пар достигнет насыщения.
f - Относительная влажность воздуха - влажноcть воздуха, измеренная на высоте 2 м над землей.
Te - Эффективная температура - температура, которую ощущает одетый по сезону человек в тени. Характеристика душности погоды. При расчете учитывается влияние влажности воздуха и скорости ветра на теплоощущения человека.
Tes - Эффективная температура на солнце - температура, которую ощущает человек, с поправкой на солнечный нагрев. Характеристика знойности погоды. Зависит от высоты солнца над горизонтом, облачности и скорости ветра. Ночью, в пасмурную погоду, а также при ветре 12 м/с и более поправка равна нулю.
P - Атмосферное давление - приведенное к уровню моря атмосферное давление.
Po - Атмосферное давление - измеренное на уровне метеостанции атмосферное давление.
Tmin - Минимальная температура - минимум температуры воздуха на высоте 2 м над землей.
Tmax - Максимальная температура - максимум температуры воздуха на высоте 2 м над землей.
R - Количество осадков - Количество выпавших осадков, мм. При наведении курсора мыши на число - период времени, за который выпало указанное количество осадков.
S - Снежный покров - Высота снежного покрова, см. При наведении курсора мыши на число - состояние снежного покрова и степень покрытия местности в баллах.